Location: Clyde
(45.1830°S, 169.3170°E)
Time: 17:21:51
(UTC+12:00)

Cosmos 1408 - Pass Details

Date: 14 May 2021
Orbit: 468 x 490 km, 82.6° (Epoch: 16 June)

Event Time Altitude Azimuth Distance (km) Brightness Sun altitude
Rises 18:08:32 0° 355° (N) 2,567 6.6 -8.0°
Reaches altitude 10° 18:10:37 10° 355° (N) 1,696 5.6 -8.3°
Maximum altitude 18:14:20 84° 82° (E) 511 2.6 -8.9°
Drops below altitude 10° 18:18:07 10° 170° (S) 1,724 5.1 -9.6°
Sets 18:20:16 0° 170° (S) 2,614 6.0 -9.9°
